Regional Weather Roundup
Issued by NWS

Home | Current Version | Previous Version | Text Only | Print | Product List | Glossary On
Versions: 1 2 3 4 5 6 7 8 9 10 11 12 13 14 15 16 17 18 19 20 21 22 23 24 25 26 27 28 29 30 31 32 33 34 35 36 37 38 39 40 41 42 43 44 45 46 47 48 49 50
000
ASUS43 KDTX 270510
RWRMI
MICHIGAN HOURLY REGIONAL WEATHER ROUNDUP
NATIONAL WEATHER SERVICE DETROIT/PONTIAC MI
ISSUED BY NATIONAL WEATHER SERVICE GRAND RAPIDS MI
100 AM EDT THU JUL 27 2017

NOTE: "FAIR" INDICATES FEW OR NO CLOUDS BELOW 12,000 FEET WITH NO
SIGNIFICANT WEATHER AND/OR OBSTRUCTION TO VISIBILITY.

MIZ047>049-052>055-059>063-066>070-074>076-081>083-270600-
SOUTHEAST LOWER MICHIGAN

CITY           SKY/WX    TMP DP  RH WIND       PRES   REMARKS
ADRIAN         CLOUDY    69  63  81 CALM      30.02S
ALMA           PTCLDY    71  64  80 SW10      29.99S
ANN ARBOR      CLOUDY    67  66  97 SW3       30.01S
BAD AXE        RAIN      69  66  89 CALM      29.98R
DETROIT CITY   CLOUDY    73  66  78 S7        30.01F
DETROIT        CLOUDY    73  68  84 SE5       30.01F
FLINT          MOCLDY    72  63  73 S10       29.99F
GROSSE ILE     CLOUDY    74  69  85 S8        29.99S
HILLSDALE      CLOUDY    68  63  83 CALM      30.02S
HOWELL         CLOUDY    70  63  77 CALM      30.02R

CITY           SKY/WX    TMP DP  RH WIND       PRES   REMARKS
JACKSON        CLOUDY    71  62  73 S6        30.01F
LANSING        CLOUDY    72  62  71 S8        30.00S
MASON          CLOUDY    67  63  89 SE5       30.01S
MONROE         CLOUDY    73  67  83 S3        30.00F
MT. CLEMENS    CLOUDY    70  65  83 S7        29.99F
PONTIAC        CLOUDY    72  65  78 S5        30.00S
PORT HOPE        N/A     69  66  90 CALM      29.96F
PORT HURON     CLOUDY    70  66  88 S3        29.99F
TRI CITIES     CLOUDY    71  69  93 S8        29.98S
YPSILANTI      PTCLDY    71  68  90 CALM      30.02S
$$
MIZ043>046-050>051-056>058-064>065-071>073-077>080-270600-
SOUTHWEST LOWER MICHIGAN

CITY           SKY/WX    TMP DP  RH WIND       PRES   REMARKS
BATTLE CREEK   CLOUDY    72  65  78 S3        30.01F
BENTON HARBOR  CLOUDY    73  67  81 SE3       29.97F
BIG RAPIDS     CLOUDY    69  66  93 CALM      29.97F FOG
COLDWATER      CLOUDY    71  66  84 SE5       30.01S
HOLLAND        PTCLDY    73  66  78 S5        29.98F
GRAND RAPIDS   PTCLDY    72  67  84 S3        29.99S
KALAMAZOO      CLOUDY    74  64  71 S3        30.00F
MARSHALL       CLOUDY    71  66  85 CALM      30.00F
MOUNT PLEASANT PTCLDY    71  66  85 SW5       29.97F
MUSKEGON       CLOUDY    72  68  87 CALM      29.97S
STURGIS        CLOUDY    71  66  84 CALM      30.00F
$$
MIZ016>042-270600-
NORTHERN LOWER MICHIGAN

CITY           SKY/WX    TMP DP  RH WIND       PRES   REMARKS
ALPENA         CLEAR     67  67 100 CALM      29.96S
BEAVER ISLAND  FOG       64  64  99 CALM      29.96F VSB<1/4
BELLAIRE       CLOUDY    70  67  91 CALM      29.97S
CADILLAC       CLOUDY    70  67  90 SW3       29.99F FOG
CHARLEVOIX     CLOUDY    68  68 100 W6        29.99S FOG
GAYLORD        TSTM      67  63  87 W9G17     30.00R FOG
HOUGHTON LAKE  CLOUDY    69  67  93 SW3       30.00F
MANISTEE       CLOUDY    67  67 100 CALM      29.97S
OSCODA         CLOUDY    69  68  96 CALM      29.96F
PELLSTON       CLOUDY    68  67  96 CALM      29.97S
TRAVERSE CITY  CLEAR     70  67  90 CALM      29.95S
LUDINGTON      CLOUDY    69  68  98 SW3       29.97R FOG
$$
MIZ007>008-015-270600-
EASTERN UPPER MICHIGAN

CITY           SKY/WX    TMP DP  RH WIND       PRES   REMARKS
KINROSS        FOG       63  63 100 W3        29.96S VSB<1/4
MACKINAC ISLAN FOG       64  64 100 W3        29.96S VSB 1/4
NEWBERRY       CLEAR     57  56  97 S3        29.96S FOG
S. S. MARIE    CLEAR     60  55  83 CALM      29.94F
$$
MIZ004>006-011>014-085-270600-
CENTRAL UPPER MICHIGAN

CITY           SKY/WX    TMP DP  RH WIND       PRES   REMARKS
MANISTIQUE     CLEAR     55  52  89 CALM      29.96R
ESCANABA       CLEAR     60  59  96 CALM      29.97S
MENOMINEE      CLEAR     69  65  86 N6          N/A
SAWYER-GWINN   CLEAR     59  54  85 CALM      30.00R
$$
MIZ001>003-009>011-084-270600-
WESTERN UPPER MICHIGAN

CITY           SKY/WX    TMP DP  RH WIND       PRES   REMARKS
IRON MOUNTAIN  CLEAR     58  52  80 N3        29.99S
HOUGHTON       CLEAR     61  55  81 NW7       29.98R
COPPER HARBOR    N/A     64  55  72 SW5       29.96R
IRONWOOD       CLEAR     59  58  96 CALM      30.03R
$$

ABBREVIATIONS USED IN REMARKS
   TC - TEMPERATURE IN CELSIUS
  WCI - WIND CHILL INDEX
   HX - HEAT INDEX
  VSB - VISIBILITY





USA.gov is the U.S. government's official web portal to all federal, state and local government web resources and services.